TimeEDT,TemperatureF,Dew PointF,Humidity,Sea Level PressureIn,VisibilityMPH,Wind Direction,Wind SpeedMPH,Gust SpeedMPH,PrecipitationIn,Events,Conditions,WindDirDegrees,DateUTC
12:09 AM,66.2,62.6,88,30.04,10.0,North,3.5,-,N/A,,Overcast,360,2013-10-16 04:09:00
12:54 AM,66.0,62.1,87,30.04,10.0,North,3.5,-,N/A,,Overcast,350,2013-10-16 04:54:00
1:08 AM,66.2,62.6,88,30.04,10.0,North,3.5,-,N/A,,Overcast,10,2013-10-16 05:08:00
1:54 AM,66.0,62.1,87,30.04,10.0,North,6.9,-,N/A,,Overcast,10,2013-10-16 05:54:00
2:09 AM,66.2,62.6,88,30.03,10.0,NNE,5.8,-,N/A,,Overcast,20,2013-10-16 06:09:00
2:36 AM,66.2,62.6,88,30.03,10.0,North,5.8,-,N/A,,Overcast,360,2013-10-16 06:36:00
2:54 AM,66.0,62.1,87,30.03,10.0,NNE,5.8,-,N/A,,Overcast,20,2013-10-16 06:54:00
3:54 AM,66.0,62.1,87,30.00,10.0,NE,5.8,-,N/A,,Overcast,50,2013-10-16 07:54:00
4:54 AM,64.9,62.1,90,30.01,10.0,North,4.6,-,N/A,,Overcast,10,2013-10-16 08:54:00
5:54 AM,64.9,62.1,90,30.01,10.0,North,3.5,-,N/A,,Overcast,10,2013-10-16 09:54:00
6:54 AM,64.9,62.1,90,30.03,10.0,North,4.6,-,N/A,,Overcast,10,2013-10-16 10:54:00
7:18 AM,64.4,62.6,94,30.03,10.0,NNE,4.6,-,N/A,,Overcast,30,2013-10-16 11:18:00
7:54 AM,64.9,62.1,90,30.03,10.0,NNE,4.6,-,N/A,,Overcast,30,2013-10-16 11:54:00
8:54 AM,68.0,61.0,78,30.04,10.0,North,8.1,-,N/A,,Overcast,360,2013-10-16 12:54:00
9:54 AM,68.0,61.0,78,30.04,10.0,North,3.5,-,N/A,,Overcast,10,2013-10-16 13:54:00
10:04 AM,68.0,60.8,78,30.05,10.0,North,4.6,-,N/A,,Overcast,10,2013-10-16 14:04:00
10:54 AM,69.1,61.0,75,30.05,10.0,NNE,3.5,-,N/A,,Overcast,20,2013-10-16 14:54:00
11:54 AM,69.1,60.1,73,30.03,10.0,Calm,Calm,-,N/A,,Overcast,0,2013-10-16 15:54:00
12:54 PM,70.0,60.1,71,30.03,10.0,North,5.8,-,N/A,,Overcast,350,2013-10-16 16:54:00
1:54 PM,71.1,60.1,68,30.00,10.0,North,5.8,-,N/A,,Overcast,360,2013-10-16 17:54:00
2:54 PM,71.1,60.1,68,29.99,10.0,Calm,Calm,-,N/A,,Overcast,0,2013-10-16 18:54:00
3:54 PM,71.1,60.1,68,29.98,10.0,Calm,Calm,-,N/A,,Overcast,0,2013-10-16 19:54:00
4:54 PM,70.0,61.0,73,29.97,10.0,Calm,Calm,-,N/A,,Overcast,0,2013-10-16 20:54:00
5:54 PM,70.0,60.1,71,29.98,10.0,Calm,Calm,-,N/A,,Overcast,0,2013-10-16 21:54:00
6:54 PM,69.1,61.0,75,29.99,10.0,Calm,Calm,-,N/A,,Overcast,0,2013-10-16 22:54:00
7:19 PM,68.0,60.8,78,29.98,10.0,Calm,Calm,-,N/A,,Scattered Clouds,0,2013-10-16 23:19:00
7:54 PM,62.1,60.1,93,29.99,10.0,Calm,Calm,-,N/A,,Clear,0,2013-10-16 23:54:00
8:54 PM,61.0,59.0,93,30.00,10.0,Calm,Calm,-,N/A,,Clear,0,2013-10-17 00:54:00
9:54 PM,61.0,59.0,93,29.98,10.0,Calm,Calm,-,N/A,,Clear,0,2013-10-17 01:54:00
10:54 PM,61.0,60.1,97,29.99,10.0,Calm,Calm,-,N/A,,Clear,0,2013-10-17 02:54:00
11:54 PM,60.1,57.9,93,29.99,10.0,Calm,Calm,-,N/A,,Clear,0,2013-10-17 03:54:00